SCP
0 0 0 0 0 0 0 0 0 0 0 0 0 0 0 0 0 0 0 0 0 0 0 0 0 0 0 0 0 0 0 0 0 0 0 0 0 0 0 0 0 0 0
0 0 0 0 0 0 0 0 0 0 0 0 0 0 0 0 0 0 0 0 0 0 0 0 0 0 0 0 0 0 0 0 0 0 0 0 0 0 0 0 0 0 0
0 0 0 0 0 0 0 0 0 0 0 0 0 0 0 0 0 0 0 0 0 0 0 0 0 0 0 0 0 0 0 0 0 0 0 0 0 0 0 0 0 0 0
0 0 0 0 0 0 0 0 0 0 0 0 0 0 0 0 0 0 0 0 0 0 0 0 0 0 0 0 0 0 0 0 0 0 0 0 0 0 0 0 0 0 0
0 0 0 0 0 0 0 0 0 0 0 0 0 0 0 0 0 0 0 0 0 0 0 0 0 0 0 0 0 0 0 0 0 0 0 0 0 0 0 0 0 0 0
0 0 0 0 0 0 0 0 0 0 0 0 0 0 0 0 0 0 0 0 0 0 0 0 0 0 0 0 0 0 0 0 0 0 0 0 0 0 0 0 0 0 0
0 0 0 0 0 0 0 0 0 0 0 0 0 0 0 0 0 0 0 0 0 0 0 0 0 0 0 0 0 0 0 0 0 0 0 0 0 0 0 0 0 0 0
0 0 0 0 0 0 0 0 0 0 0 0 0 0 0 0 0 0 0 0 0 0 0 0 0 0 0 0 0 0 0 0 0 0 0 0 0 0 0 0 0 0 0
0 0 0 0 0 0 0 0 0 0 0 0 0 0 0 0 0 0 0 0 0 0 0 0 0 0 0 0 0 0 0 0 0 0 0 0 0 0 0 0 0 0 0
0 0 0 0 0 0 0 0 0 0 0 0 0 0 0 0 0 0 0 0 0 0 0 0 0 0 0 0 0 0 0 0 0 0 0 0 0 0 0 0 0 0 0
0 0 0 0 0 0 0 0 0 0 0 0 0 0 0 0 0 0 0 0 0 0 0 0 0 0 0 0 0 0 0 0 0 0 0 0 0 0 0 0 0 0 0
0 0 0 0 0 0 0 0 0 0 0 0 0 0 0 0 0 0 0 0 0 0 0 0 0 0 0 0 0 0 0 0 0 0 0 0 0 0 0 0 0 0 0
0 0 0 0 0 0 0 0 0 0 0 0 0 0 0 0 0 0 0 0 0 0 0 0 0 0 0 0 0 0 0 0 0 0 0 0 0 0 0 0 0 0 0
0 0 0 0 0 0 0 0 0 0 0 0 0 0 0 0 0 0 0 0 0 0 0 0 0 0 0 0 0 0 0 0 0 0 0 0 0 0 0 0 0 0 0
0 0 0 0 0 0 0 0 0 0 0 0 0 0 0 0 0 0 -0 0 0 0 0 0 0 0 0 0 0 0 0 0 0 0 0 0 0 0 0 0 0 0 0
0 0 0 0 0 0 0 0 0 0 0 0 0 0 0 0 0 0 0 -0 0 0 0 0 0 0 0 0 0 0 0 0 0 0 0 0 0 0 0 0 0 0 0
0 0 0 0 0 0 0 0 0 0 0 0 0 0 0 0 0 0 0 0 0 0 0 0 0 0 0 0 0 0 0 0 0 0 0 0 0 0 0 0 0 0 0
0 0 0 0 0 0 0 0 0 0 0 0 0 0 0 0 0 0 0 0 -0 0 0 0 0 0 0 0 0 0 0 0 0 0 0 0 0 0 0 0 0 0 0
0 0 0 0 0 0 -0 0 0 0 0 0 0 0 0 0 0 0 0 0 0 0 0 0 0 0 0 0 0 0 0 0 0 0 0 0 0 0 0 0 0 0 0
0 0 0 0 0 0 -0 -0 0 0 -0 0 -0 0 0 0 0 0 0 -0 0 0 0 0 0 0 0 0 0 0 0 0 0 0 0 0 0 0 0 0 0 0 0
0 0 0 0 0 0 0 0 0 -0 -0 0 0 -0 -0 0 0 0 0 -0 0 0 0 0 0 0 0 0 0 0 0 0 0 0 0 0 0 0 0 0 0 0 0
0 0 0 0 0 0 0 0 0 -0 0 0 0 -0 -0 -0 0 0 0 0 0 0 0 0 0 0 0 0 0 0 0 0 0 0 0 0 0 0 0 0 0 0 0
0 0 0 0 0 0 0 0 0 0 -0 -0 -0 0 -0 -0 0 0 -0 -0 0 0 0 0 0 0 0 0 0 0 0 0 0 0 0 0 0 0 0 0 0 0 0
0 0 0 0 0 0 0 0 0 -0 0 0 0 0 0 0 0 0 -0 0 0 0 0 0 0 0 0 0 0 0 0 0 0 0 0 0 0 0 0 0 0 0 0
0 0 0 0 0 0 0 -0 0 -0 -0 -0 -0 0 0 0 0 0 0 0 0 0 0 0 0 0 0 0 0 0 0 0 0 0 0 0 0 0 0 0 0 0 0
0 0 0 0 -0 0 0 -0 -0 0 0 0 0 0 0 0 0 0 0 0 0 0 0 0 0 0 0 0 0 0 0 0 0 0 0 0 0 0 0 0 0 0 0
Wind_Speed_500mb
56 57 59 48 53 85 96 101 98 91 86 83 77 75 71 76 76 75 75 72 71 69 64 59 55 51 50 50 47 43 39 34 36 31 32 33 35 33 27 24 21 19 19
58 59 58 60 55 39 48 81 100 101 97 93 89 80 76 75 79 77 78 76 76 75 70 65 61 55 54 54 48 49 47 43 41 34 34 39 39 33 27 25 23 21 20
58 57 60 53 59 55 46 55 64 98 99 104 98 94 85 80 81 81 81 80 78 80 77 71 67 63 59 56 52 51 51 46 47 45 44 46 44 32 29 27 25 23 21
56 60 61 58 54 57 68 55 48 55 91 105 111 103 97 92 86 87 87 86 84 82 81 78 72 67 63 61 57 56 53 47 50 48 49 50 42 34 32 29 26 24 22
62 59 59 60 57 57 61 68 73 50 49 91 115 118 108 105 96 89 91 91 89 85 84 79 75 71 68 64 62 59 54 52 58 53 55 54 43 39 34 29 26 25 26
60 63 62 59 58 58 55 54 65 82 59 46 33 83 115 117 106 97 95 90 93 92 87 83 78 77 74 70 67 62 59 60 62 63 56 61 46 41 38 33 34 30 35
57 56 61 62 58 59 57 50 51 51 78 74 60 58 80 117 119 105 95 95 93 93 92 91 88 85 81 76 71 70 64 64 62 69 61 65 51 48 44 42 37 40 36
60 59 60 63 63 62 61 56 47 45 50 68 81 49 43 66 98 113 103 98 96 89 91 91 90 87 82 80 75 72 70 68 63 70 68 68 57 54 50 46 45 39 39
65 64 62 61 62 60 62 59 51 53 61 55 64 54 19 16 37 81 112 106 101 94 89 89 88 85 81 78 75 69 71 71 66 66 70 66 58 56 53 52 50 42 39
64 66 67 65 60 60 60 60 56 53 48 55 54 60 82 101 60 22 69 109 112 101 91 88 87 85 81 77 70 67 66 73 73 61 87 77 68 64 57 54 52 46 37
74 68 65 65 65 60 60 59 59 55 53 62 62 59 60 74 94 74 51 79 107 107 96 89 87 84 80 77 70 66 62 61 68 70 79 72 66 68 58 53 41 40 38
81 75 70 67 64 60 58 61 60 61 63 63 64 64 67 56 68 82 63 64 93 110 105 97 96 89 82 76 73 73 67 59 61 64 82 67 69 60 51 45 46 50 34
78 76 71 69 68 63 58 57 56 57 65 66 69 71 67 75 85 71 99 47 58 77 89 103 99 89 82 76 73 74 66 66 68 66 78 59 54 56 54 49 49 43 41
76 73 73 71 70 67 61 57 59 61 63 71 71 79 82 82 73 68 81 70 42 54 79 81 98 88 84 82 78 76 72 74 70 72 75 79 75 66 56 59 55 47 57
75 73 68 67 79 83 75 74 81 84 82 74 75 77 80 81 77 79 77 76 61 48 71 71 61 92 86 84 78 73 70 73 75 81 87 86 83 75 69 59 53 67 61
76 78 80 78 74 77 76 72 78 79 80 90 96 83 79 84 80 82 78 85 91 75 49 78 90 87 90 85 79 77 79 86 97 93 84 84 78 71 58 48 58 65 54
82 83 84 86 85 83 76 77 79 79 80 79 79 94 98 79 80 75 79 77 81 84 66 78 86 87 91 89 81 84 89 92 88 86 89 73 70 46 48 60 62 57 46
81 85 88 86 87 86 86 85 86 82 81 82 82 81 89 98 87 87 78 79 81 94 91 94 90 93 94 89 89 88 83 77 78 77 58 47 52 70 69 64 56 45 25
76 77 78 80 80 83 83 81 83 87 85 87 85 82 78 77 81 81 68 70 81 86 109 107 100 102 102 97 95 85 81 74 58 52 55 65 72 71 64 55 42 30 23
76 77 77 78 77 78 77 75 76 78 84 90 90 84 85 84 91 81 77 67 74 89 111 107 109 113 112 100 97 95 79 67 69 71 70 70 69 63 55 45 36 31 26
73 75 75 73 71 68 68 70 73 75 77 85 87 94 91 93 88 91 81 66 76 98 110 109 119 117 117 116 110 97 92 90 80 77 79 70 68 59 47 37 28 17 14
79 79 72 66 59 53 54 59 70 76 80 82 93 93 93 94 90 93 78 76 73 103 126 122 126 132 127 113 113 109 104 101 81 73 74 63 55 49 38 30 21 22 22
73 67 62 62 55 52 52 49 54 48 56 69 77 83 93 96 102 91 82 88 68 116 129 128 126 132 130 124 116 112 106 105 92 86 79 60 39 41 34 31 28 26 24
61 55 67 71 64 55 47 38 21 7 15 31 49 61 71 80 79 71 64 61 87 78 99 118 113 120 118 119 116 119 119 100 95 85 66 58 43 40 36 29 27 25 22
52 55 62 65 81 66 47 45 59 58 44 36 19 26 42 45 56 79 73 89 89 77 76 88 103 116 114 119 126 122 106 97 90 78 64 55 53 44 37 32 29 23 17
49 56 60 61 65 79 70 57 67 77 84 82 84 74 76 84 93 91 97 107 98 89 88 96 106 106 109 104 83 69 76 77 78 70 60 53 58 52 33 36 28 19 18
Wind_Direction_500mb
296 291 281 291 266 262 259 256 254 253 250 251 255 259 257 244 239 236 236 234 235 235 233 234 235 234 237 236 230 229 231 232 235 207 206 216 222 231 241 250 255 266 277
299 294 290 287 281 252 250 251 256 256 251 249 252 252 257 251 244 240 239 237 236 236 234 233 234 233 236 236 230 231 227 227 231 223 217 220 223 230 242 247 252 259 271
302 298 294 287 276 277 268 252 247 256 261 250 250 249 251 253 250 245 241 239 237 237 235 233 233 233 235 234 229 232 225 219 232 236 216 220 227 231 238 244 249 258 271
298 295 295 292 286 280 274 273 281 261 251 260 253 252 249 249 249 249 245 241 238 237 236 235 233 232 234 233 227 229 228 225 230 239 221 223 230 235 236 241 249 259 274
304 298 294 292 292 288 284 274 272 284 255 252 253 252 251 249 247 247 247 243 239 237 238 236 234 232 233 233 231 223 228 225 228 239 229 226 232 233 233 240 249 259 272
305 299 296 296 294 294 286 284 278 262 283 246 257 249 252 251 247 246 245 245 243 239 237 238 236 234 234 234 231 224 222 224 228 234 234 231 229 227 235 243 251 257 267
308 299 296 295 295 295 295 291 289 279 257 264 286 271 247 248 248 243 245 243 241 240 239 239 238 237 237 234 231 226 219 223 230 231 231 227 230 228 233 239 251 259 265
312 305 303 301 296 293 291 291 290 281 275 255 260 273 258 232 239 242 239 240 240 240 239 240 240 239 237 234 233 229 220 220 225 229 228 225 231 227 233 238 249 254 260
309 306 303 299 297 291 288 287 283 275 281 271 262 254 282 249 239 239 238 236 237 237 238 237 238 239 237 235 234 232 227 222 223 226 227 225 232 233 234 239 247 251 250
309 307 307 304 298 293 287 284 281 277 271 273 276 261 256 254 272 293 236 234 232 234 235 235 234 235 234 234 234 235 233 226 225 226 225 226 226 232 232 241 249 249 227
307 305 304 303 301 296 289 283 282 274 261 260 261 262 257 255 254 257 267 228 226 228 230 234 233 231 228 228 229 231 235 231 230 227 213 219 230 229 227 241 211 193 191
306 305 305 302 302 296 285 282 281 276 268 263 259 261 259 253 253 243 258 231 221 220 222 226 230 229 226 225 225 228 230 231 232 224 206 218 221 224 223 203 189 199 182
304 302 299 299 299 298 292 290 283 275 270 267 257 256 259 262 260 255 242 257 212 213 218 222 225 225 223 223 224 227 223 228 230 230 222 222 221 213 212 189 191 188 180
302 301 298 298 297 295 294 293 287 280 273 269 266 257 255 253 257 257 249 245 225 201 206 212 217 218 219 222 224 226 227 224 227 229 232 231 226 212 184 183 179 174 177
305 303 300 293 286 283 279 275 272 271 268 270 264 266 259 255 258 254 251 243 239 209 198 205 204 215 215 218 220 217 223 224 225 218 215 199 199 189 184 176 186 185 182
307 303 301 296 288 285 285 282 279 278 272 262 259 263 261 255 252 249 252 249 243 241 208 199 204 206 206 209 209 216 213 214 208 206 190 190 185 180 178 191 189 194 201
306 301 298 296 292 290 283 280 278 278 272 267 261 250 252 249 247 254 256 251 242 242 217 201 204 198 197 199 192 193 196 194 197 192 193 181 179 180 191 189 199 202 218
308 308 305 299 294 291 289 284 278 274 270 266 262 256 250 246 250 251 256 254 244 245 210 200 189 186 191 191 190 191 188 188 186 182 184 194 178 177 184 190 195 202 188
319 317 312 305 300 295 289 282 275 273 268 265 260 253 247 243 243 251 248 249 247 213 206 205 183 180 184 185 182 182 185 184 180 166 169 168 174 181 185 186 197 191 191
330 327 321 315 310 304 296 287 279 272 269 263 258 253 248 246 244 250 252 248 246 208 198 200 186 179 181 177 184 179 165 167 160 163 167 173 178 182 191 196 193 202 202
335 331 327 322 316 310 303 298 289 279 268 263 260 256 248 244 241 246 249 238 229 204 193 186 174 171 173 173 175 171 166 162 157 167 170 174 184 186 183 190 191 185 197
343 339 340 339 334 325 317 302 289 276 264 258 252 250 248 245 241 243 249 237 250 215 195 190 178 176 174 171 177 178 176 164 147 168 175 167 184 177 180 169 159 192 197
350 348 359 359 359 350 337 320 300 289 263 254 253 249 246 243 244 248 242 231 234 216 216 210 191 185 180 184 182 176 174 171 166 163 177 153 174 164 158 159 176 190 194
354 2 3 12 17 5 358 8 22 316 253 245 245 245 243 242 237 231 223 213 194 187 196 205 210 195 187 185 186 179 175 172 158 157 175 146 166 161 166 173 187 196 205
6 13 14 30 32 25 23 48 60 61 75 84 116 218 228 217 197 197 192 178 176 169 167 175 175 174 176 174 182 180 164 154 152 160 173 170 167 168 176 180 194 203 209
22 31 37 44 48 45 42 60 72 71 66 65 81 95 124 139 151 164 163 169 148 137 154 151 144 142 154 156 159 169 160 163 159 162 176 176 172 174 174 196 208 198 212
Wind_Speed_850mb
56 57 59 48 53 85 96 101 98 91 86 83 77 75 71 76 76 75 75 72 71 69 64 59 55 51 50 50 47 43 39 34 36 31 32 33 35 33 27 24 21 19 19
58 59 58 60 55 39 48 81 100 101 97 93 89 80 76 75 79 77 78 76 76 75 70 65 61 55 54 54 48 49 47 43 41 34 34 39 39 33 27 25 23 21 20
58 57 60 53 59 55 46 55 64 98 99 104 98 94 85 80 81 81 81 80 78 80 77 71 67 63 59 56 52 51 51 46 47 45 44 46 44 32 29 27 25 23 21
56 60 61 58 54 57 68 55 48 55 91 105 111 103 97 92 86 87 87 86 84 82 81 78 72 67 63 61 57 56 53 47 50 48 49 50 42 34 32 29 26 24 22
62 59 59 60 57 57 61 68 73 50 49 91 115 118 108 105 96 89 91 91 89 85 84 79 75 71 68 64 62 59 54 52 58 53 55 54 43 39 34 29 26 25 26
60 63 62 59 58 58 55 54 65 82 59 46 33 83 115 117 106 97 95 90 93 92 87 83 78 77 74 70 67 62 59 60 62 63 56 61 46 41 38 33 34 30 35
57 56 61 62 58 59 57 50 51 51 78 74 60 58 80 117 119 105 95 95 93 93 92 91 88 85 81 76 71 70 64 64 62 69 61 65 51 48 44 42 37 40 36
60 59 60 63 63 62 61 56 47 45 50 68 81 49 43 66 98 113 103 98 96 89 91 91 90 87 82 80 75 72 70 68 63 70 68 68 57 54 50 46 45 39 39
65 64 62 61 62 60 62 59 51 53 61 55 64 54 19 16 37 81 112 106 101 94 89 89 88 85 81 78 75 69 71 71 66 66 70 66 58 56 53 52 50 42 39
64 66 67 65 60 60 60 60 56 53 48 55 54 60 82 101 60 22 69 109 112 101 91 88 87 85 81 77 70 67 66 73 73 61 87 77 68 64 57 54 52 46 37
74 68 65 65 65 60 60 59 59 55 53 62 62 59 60 74 94 74 51 79 107 107 96 89 87 84 80 77 70 66 62 61 68 70 79 72 66 68 58 53 41 40 38
81 75 70 67 64 60 58 61 60 61 63 63 64 64 67 56 68 82 63 64 93 110 105 97 96 89 82 76 73 73 67 59 61 64 82 67 69 60 51 45 46 50 34
78 76 71 69 68 63 58 57 56 57 65 66 69 71 67 75 85 71 99 47 58 77 89 103 99 89 82 76 73 74 66 66 68 66 78 59 54 56 54 49 49 43 41
76 73 73 71 70 67 61 57 59 61 63 71 71 79 82 82 73 68 81 70 42 54 79 81 98 88 84 82 78 76 72 74 70 72 75 79 75 66 56 59 55 47 57
75 73 68 67 79 83 75 74 81 84 82 74 75 77 80 81 77 79 77 76 61 48 71 71 61 92 86 84 78 73 70 73 75 81 87 86 83 75 69 59 53 67 61
76 78 80 78 74 77 76 72 78 79 80 90 96 83 79 84 80 82 78 85 91 75 49 78 90 87 90 85 79 77 79 86 97 93 84 84 78 71 58 48 58 65 54
82 83 84 86 85 83 76 77 79 79 80 79 79 94 98 79 80 75 79 77 81 84 66 78 86 87 91 89 81 84 89 92 88 86 89 73 70 46 48 60 62 57 46
81 85 88 86 87 86 86 85 86 82 81 82 82 81 89 98 87 87 78 79 81 94 91 94 90 93 94 89 89 88 83 77 78 77 58 47 52 70 69 64 56 45 25
76 77 78 80 80 83 83 81 83 87 85 87 85 82 78 77 81 81 68 70 81 86 109 107 100 102 102 97 95 85 81 74 58 52 55 65 72 71 64 55 42 30 23
76 77 77 78 77 78 77 75 76 78 84 90 90 84 85 84 91 81 77 67 74 89 111 107 109 113 112 100 97 95 79 67 69 71 70 70 69 63 55 45 36 31 26
73 75 75 73 71 68 68 70 73 75 77 85 87 94 91 93 88 91 81 66 76 98 110 109 119 117 117 116 110 97 92 90 80 77 79 70 68 59 47 37 28 17 14
79 79 72 66 59 53 54 59 70 76 80 82 93 93 93 94 90 93 78 76 73 103 126 122 126 132 127 113 113 109 104 101 81 73 74 63 55 49 38 30 21 22 22
73 67 62 62 55 52 52 49 54 48 56 69 77 83 93 96 102 91 82 88 68 116 129 128 126 132 130 124 116 112 106 105 92 86 79 60 39 41 34 31 28 26 24
61 55 67 71 64 55 47 38 21 7 15 31 49 61 71 80 79 71 64 61 87 78 99 118 113 120 118 119 116 119 119 100 95 85 66 58 43 40 36 29 27 25 22
52 55 62 65 81 66 47 45 59 58 44 36 19 26 42 45 56 79 73 89 89 77 76 88 103 116 114 119 126 122 106 97 90 78 64 55 53 44 37 32 29 23 17
49 56 60 61 65 79 70 57 67 77 84 82 84 74 76 84 93 91 97 107 98 89 88 96 106 106 109 104 83 69 76 77 78 70 60 53 58 52 33 36 28 19 18
Wind_Direction_850mb
296 291 281 291 266 262 259 256 254 253 250 251 255 259 257 244 239 236 236 234 235 235 233 234 235 234 237 236 230 229 231 232 235 207 206 216 222 231 241 250 255 266 277
299 294 290 287 281 252 250 251 256 256 251 249 252 252 257 251 244 240 239 237 236 236 234 233 234 233 236 236 230 231 227 227 231 223 217 220 223 230 242 247 252 259 271
302 298 294 287 276 277 268 252 247 256 261 250 250 249 251 253 250 245 241 239 237 237 235 233 233 233 235 234 229 232 225 219 232 236 216 220 227 231 238 244 249 258 271
298 295 295 292 286 280 274 273 281 261 251 260 253 252 249 249 249 249 245 241 238 237 236 235 233 232 234 233 227 229 228 225 230 239 221 223 230 235 236 241 249 259 274
304 298 294 292 292 288 284 274 272 284 255 252 253 252 251 249 247 247 247 243 239 237 238 236 234 232 233 233 231 223 228 225 228 239 229 226 232 233 233 240 249 259 272
305 299 296 296 294 294 286 284 278 262 283 246 257 249 252 251 247 246 245 245 243 239 237 238 236 234 234 234 231 224 222 224 228 234 234 231 229 227 235 243 251 257 267
308 299 296 295 295 295 295 291 289 279 257 264 286 271 247 248 248 243 245 243 241 240 239 239 238 237 237 234 231 226 219 223 230 231 231 227 230 228 233 239 251 259 265
312 305 303 301 296 293 291 291 290 281 275 255 260 273 258 232 239 242 239 240 240 240 239 240 240 239 237 234 233 229 220 220 225 229 228 225 231 227 233 238 249 254 260
309 306 303 299 297 291 288 287 283 275 281 271 262 254 282 249 239 239 238 236 237 237 238 237 238 239 237 235 234 232 227 222 223 226 227 225 232 233 234 239 247 251 250
309 307 307 304 298 293 287 284 281 277 271 273 276 261 256 254 272 293 236 234 232 234 235 235 234 235 234 234 234 235 233 226 225 226 225 226 226 232 232 241 249 249 227
307 305 304 303 301 296 289 283 282 274 261 260 261 262 257 255 254 257 267 228 226 228 230 234 233 231 228 228 229 231 235 231 230 227 213 219 230 229 227 241 211 193 191
306 305 305 302 302 296 285 282 281 276 268 263 259 261 259 253 253 243 258 231 221 220 222 226 230 229 226 225 225 228 230 231 232 224 206 218 221 224 223 203 189 199 182
304 302 299 299 299 298 292 290 283 275 270 267 257 256 259 262 260 255 242 257 212 213 218 222 225 225 223 223 224 227 223 228 230 230 222 222 221 213 212 189 191 188 180
302 301 298 298 297 295 294 293 287 280 273 269 266 257 255 253 257 257 249 245 225 201 206 212 217 218 219 222 224 226 227 224 227 229 232 231 226 212 184 183 179 174 177
305 303 300 293 286 283 279 275 272 271 268 270 264 266 259 255 258 254 251 243 239 209 198 205 204 215 215 218 220 217 223 224 225 218 215 199 199 189 184 176 186 185 182
307 303 301 296 288 285 285 282 279 278 272 262 259 263 261 255 252 249 252 249 243 241 208 199 204 206 206 209 209 216 213 214 208 206 190 190 185 180 178 191 189 194 201
306 301 298 296 292 290 283 280 278 278 272 267 261 250 252 249 247 254 256 251 242 242 217 201 204 198 197 199 192 193 196 194 197 192 193 181 179 180 191 189 199 202 218
308 308 305 299 294 291 289 284 278 274 270 266 262 256 250 246 250 251 256 254 244 245 210 200 189 186 191 191 190 191 188 188 186 182 184 194 178 177 184 190 195 202 188
319 317 312 305 300 295 289 282 275 273 268 265 260 253 247 243 243 251 248 249 247 213 206 205 183 180 184 185 182 182 185 184 180 166 169 168 174 181 185 186 197 191 191
330 327 321 315 310 304 296 287 279 272 269 263 258 253 248 246 244 250 252 248 246 208 198 200 186 179 181 177 184 179 165 167 160 163 167 173 178 182 191 196 193 202 202
335 331 327 322 316 310 303 298 289 279 268 263 260 256 248 244 241 246 249 238 229 204 193 186 174 171 173 173 175 171 166 162 157 167 170 174 184 186 183 190 191 185 197
343 339 340 339 334 325 317 302 289 276 264 258 252 250 248 245 241 243 249 237 250 215 195 190 178 176 174 171 177 178 176 164 147 168 175 167 184 177 180 169 159 192 197
350 348 359 359 359 350 337 320 300 289 263 254 253 249 246 243 244 248 242 231 234 216 216 210 191 185 180 184 182 176 174 171 166 163 177 153 174 164 158 159 176 190 194
354 2 3 12 17 5 358 8 22 316 253 245 245 245 243 242 237 231 223 213 194 187 196 205 210 195 187 185 186 179 175 172 158 157 175 146 166 161 166 173 187 196 205
6 13 14 30 32 25 23 48 60 61 75 84 116 218 228 217 197 197 192 178 176 169 167 175 175 174 176 174 182 180 164 154 152 160 173 170 167 168 176 180 194 203 209
22 31 37 44 48 45 42 60 72 71 66 65 81 95 124 139 151 164 163 169 148 137 154 151 144 142 154 156 159 169 160 163 159 162 176 176 172 174 174 196 208 198 212